| time (UTC) | temp F | wind direction | speed MPH | gust MPH | rain 1hr in | rain 24hr in | rain mn in | humidity % | barometer mb |
| 20260906141607 | 54 | 181 | 0.0 | 2.0 | 0.03 | 0.08 | 0.07 | 97 | 1017.6 |
| 20260906140032 | 54 | 200 | 0.0 | 2.0 | 0.02 | 0.07 | 0.06 | 97 | 1017.5 |
| 20260906133029 | 54 | 181 | 0.0 | 3.0 | 0.00 | 0.05 | 0.05 | 97 | 1017.2 |
| 20260906131530 | 54 | 180 | 0.0 | 2.0 | 0.00 | 0.05 | 0.05 | 97 | 1017.0 |
| 20260906130108 | 54 | 180 | 0.0 | 0.0 | 0.00 | 0.05 | 0.05 | 97 | 1017.0 |
| 20260906123032 | 54 | 196 | 1.0 | 3.0 | 0.00 | 0.05 | 0.05 | 96 | 1017.3 |
| 20260906121529 | 54 | 337 | 0.0 | 1.0 | 0.00 | 0.05 | 0.05 | 96 | 1017.3 |
| 20260906120030 | 54 | 341 | 0.0 | 3.0 | 0.00 | 0.05 | 0.05 | 96 | 1017.4 |
| 20260906114531 | 54 | 127 | 0.0 | 2.0 | 0.00 | 0.05 | 0.05 | 96 | 1017.5 |
| 20260906113028 | 54 | 135 | 0.0 | 3.0 | 0.00 | 0.05 | 0.05 | 96 | 1017.4 |
| 20260906111605 | 54 | 171 | 2.0 | 4.0 | 0.01 | 0.05 | 0.05 | 96 | 1017.5 |
| 20260906104531 | 54 | 180 | 1.0 | 4.0 | 0.02 | 0.05 | 0.05 | 96 | 1017.8 |
| 20260906103029 | 54 | 192 | 1.0 | 4.0 | 0.03 | 0.05 | 0.04 | 96 | 1017.8 |
| 20260906101533 | 54 | 192 | 0.0 | 4.0 | 0.04 | 0.04 | 0.04 | 95 | 1017.9 |
| 20260906094605 | 54 | 181 | 4.0 | 9.0 | 0.03 | 0.03 | 0.02 | 95 | 1017.9 |
| 20260906093030 | 54 | 125 | 0.0 | 4.0 | 0.02 | 0.02 | 0.00 | 95 | 1017.8 |
| 20260906091529 | 54 | 156 | 1.0 | 4.0 | 0.00 | 0.00 | 0.00 | 94 | 1017.7 |
| 20260906084543 | 54 | 180 | 0.0 | 2.0 | 0.00 | 0.00 | 0.00 | 94 | 1017.7 |
| 20260906083030 | 54 | 180 | 0.0 | 2.0 | 0.00 | 0.00 | 0.00 | 94 | 1017.8 |
| 20260906081530 | 54 | 180 | 0.0 | 2.0 | 0.00 | 0.00 | 0.00 | 94 | 1017.7 |
| 20260906080032 | 53 | 180 | 1.0 | 3.0 | 0.00 | 0.00 | 0.00 | 94 | 1017.7 |
| 20260906074646 | 53 | 191 | 0.0 | 2.0 | 0.00 | 0.00 | 0.00 | 94 | 1017.7 |
| 20260906073030 | 53 | 201 | 1.0 | 3.0 | 0.00 | 0.00 | 0.00 | 94 | 1017.7 |
| 20260906071541 | 53 | 184 | 4.0 | 10.0 | 0.00 | 0.00 | 0.00 | 93 | 1017.8 |
| 20260906070033 | 52 | 180 | 2.0 | 4.0 | 0.00 | 0.00 | 0.00 | 92 | 1018.0 |
| 20260906064542 | 52 | 180 | 1.0 | 3.0 | 0.00 | 0.00 | 0.00 | 92 | 1018.1 |
| 20260906063108 | 52 | 180 | 0.0 | 2.0 | 0.00 | 0.01 | 0.00 | 92 | 1018.2 |
| 20260906054605 | 54 | 181 | 3.0 | 9.0 | 0.00 | 0.01 | 0.00 | 91 | 1018.2 |
| 20260906053032 | 54 | 183 | 3.0 | 10.0 | 0.00 | 0.01 | 0.00 | 91 | 1018.3 |
| 20260906051533 | 55 | 185 | 2.0 | 7.0 | 0.00 | 0.01 | 0.00 | 91 | 1018.2 |
| 20260906050031 | 54 | 185 | 4.0 | 9.0 | 0.00 | 0.01 | 0.00 | 90 | 1018.3 |
| 20260906044606 | 55 | 180 | 2.0 | 7.0 | 0.00 | 0.01 | 0.00 | 90 | 1018.4 |
| 20260906043231 | 0 | 0 | 0.0 | 0.0 | 0.00 | 0.01 | 0.00 | 100 | |
| 20260906034531 | 56 | 195 | 1.0 | 10.0 | 0.00 | 0.01 | 0.00 | 89 | 1018.0 |
| 20260906033028 | 56 | 181 | 4.0 | 9.0 | 0.00 | 0.01 | 0.00 | 89 | 1017.8 |
| 20260906031528 | 56 | 192 | 3.0 | 8.0 | 0.00 | 0.01 | 0.00 | 89 | 1017.7 |
| 20260906030029 | 56 | 181 | 4.0 | 8.0 | 0.00 | 0.01 | 0.00 | 88 | 1017.6 |
| 20260906024533 | 57 | 189 | 2.0 | 4.0 | 0.00 | 0.01 | 0.00 | 87 | 1017.6 |
| 20260906021528 | 60 | 202 | 0.0 | 2.0 | 0.00 | 0.01 | 0.00 | 84 | 1017.5 |
| 20260906020029 | 61 | 183 | 0.0 | 1.0 | 0.00 | 0.01 | 0.00 | 82 | 1017.4 |
| 20260906013029 | 63 | 196 | 1.0 | 4.0 | 0.00 | 0.01 | 0.00 | 77 | 1017.6 |
| 20260906011531 | 64 | 190 | 1.0 | 3.0 | 0.00 | 0.01 | 0.00 | 77 | 1017.6 |
| 20260906010106 | 64 | 180 | 1.0 | 4.0 | 0.00 | 0.01 | 0.00 | 76 | 1017.6 |
| 20260906004532 | 64 | 181 | 1.0 | 6.0 | 0.00 | 0.01 | 0.00 | 75 | 1017.8 |
| 20260906003032 | 64 | 196 | 1.0 | 5.0 | 0.00 | 0.01 | 0.00 | 76 | 1017.9 |
| 20260906001531 | 63 | 195 | 3.0 | 9.0 | 0.00 | 0.01 | 0.00 | 81 | 1018.2 |
| 20260906000031 | 62 | 189 | 2.0 | 7.0 | 0.00 | 0.01 | 0.00 | 80 | 1018.2 |
| 20260905233031 | 63 | 177 | 3.0 | 6.0 | 0.00 | 0.01 | 0.00 | 74 | 1018.0 |
| 20260905231529 | 65 | 175 | 1.0 | 7.0 | 0.00 | 0.01 | 0.00 | 71 | 1017.9 |
| 20260905223031 | 67 | 286 | 1.0 | 4.0 | 0.00 | 0.01 | 0.00 | 67 | 1017.7 |
| 20260905221645 | 68 | 346 | 0.0 | 4.0 | 0.00 | 0.01 | 0.00 | 61 | 1017.8 |
| 20260905220032 | 68 | 62 | 1.0 | 4.0 | 0.00 | 0.01 | 0.00 | 60 | 1017.8 |
| 20260905214532 | 68 | 23 | 1.0 | 4.0 | 0.00 | 0.01 | 0.00 | 61 | 1017.9 |
| 20260905213033 | 68 | 185 | 0.0 | 3.0 | 0.00 | 0.01 | 0.00 | 63 | 1018.0 |
| 20260905211646 | 68 | 183 | 0.0 | 4.0 | 0.00 | 0.01 | 0.00 | 63 | 1018.2 |
| 20260905204528 | 66 | 183 | 2.0 | 4.0 | 0.00 | 0.01 | 0.00 | 64 | 1018.3 |
| 20260905203031 | 67 | 192 | 2.0 | 4.0 | 0.00 | 0.01 | 0.00 | 64 | 1018.4 |
| 20260905201646 | 67 | 183 | 0.0 | 5.0 | 0.00 | 0.01 | 0.00 | 65 | 1018.4 |
| 20260905200136 | 65 | 347 | 0.0 | 3.0 | 0.00 | 0.01 | 0.00 | 67 | 1018.6 |
| 20260905194532 | 65 | 334 | 0.0 | 3.0 | 0.00 | 0.01 | 0.00 | 68 | 1018.7 |
| 20260905190029 | 63 | 5 | 1.0 | 6.0 | 0.00 | 0.01 | 0.00 | 71 | 1019.2 |
| 20260905184531 | 63 | 27 | 2.0 | 6.0 | 0.00 | 0.01 | 0.00 | 75 | 1019.5 |
| 20260905180032 | 58 | 149 | 0.0 | 2.0 | 0.00 | 0.01 | 0.00 | 88 | 1020.0 |
| 20260905174530 | 57 | 90 | 0.0 | 2.0 | 0.00 | 0.01 | 0.00 | 90 | 1019.9 |
| 20260905171530 | 56 | 157 | 0.0 | 2.0 | 0.00 | 0.01 | 0.00 | 93 | 1019.9 |
| 20260905170106 | 56 | 157 | 0.0 | 0.0 | 0.00 | 0.01 | 0.00 | 95 | 1019.9 |
| 20260905164530 | 56 | 157 | 0.0 | 2.0 | 0.00 | 0.01 | 0.00 | 96 | 1019.9 |
| 20260905163029 | 56 | 157 | 0.0 | 1.0 | 0.00 | 0.01 | 0.00 | 97 | 1019.8 |
| 20260905161605 | 55 | 153 | 0.0 | 2.0 | 0.00 | 0.01 | 0.00 | 97 | 1019.8 |
| 20260905160030 | 55 | 156 | 0.0 | 2.0 | 0.00 | 0.01 | 0.00 | 97 | 1019.8 |
| 20260905153031 | 54 | 135 | 0.0 | 0.0 | 0.00 | 0.01 | 0.00 | 98 | 1019.8 |
| 20260905151530 | 53 | 135 | 0.0 | 0.0 | 0.00 | 0.01 | 0.00 | 97 | 1019.8 |
| 20260905150031 | 53 | 124 | 0.0 | 3.0 | 0.00 | 0.01 | 0.00 | 97 | 1019.7 |
| 20260905144530 | 52 | 360 | 0.0 | 0.0 | 0.00 | 0.01 | 0.00 | 97 | 1019.6 |